When you browse on this site, cookies collect data to enhance your experience and personalize the content and advertising you see.
Visit our Privacy Policy to learn more. By continuing to use the site, you agree to this use of cookies and data.

Météo par heure à Kasper

Ce jour, 11 Juillet, Samedi

Heure Température Précipitation Vent Pression Humidité
00:00 +18°C° 0 mm 3 m/s 636 mmHg 65%
01:00 +18°C° 0 mm 2 m/s 636 mmHg 68%
02:00 +18°C° 0 mm 1 m/s 636 mmHg 71%
03:00 +18°C° 0 mm 1 m/s 636 mmHg 73%
04:00 +18°C° 0 mm 1 m/s 636 mmHg 75%
05:00 +16°C° 0 mm 1 m/s 636 mmHg 77%
06:00 +20°C° 0 mm 1 m/s 636 mmHg 67%
07:00 +21°C° 0 mm 2 m/s 637 mmHg 58%
08:00 +24°C° 0 mm 2 m/s 638 mmHg 49%
09:00 +27°C° 0 mm 3 m/s 638 mmHg 38%
10:00 +29°C° 0 mm 4 m/s 638 mmHg 28%
11:00 +32°C° 0 mm 4 m/s 639 mmHg 17%
12:00 +33°C° 0 mm 6 m/s 638 mmHg 14%
13:00 +35°C° 0 mm 7 m/s 638 mmHg 11%
14:00 +37°C° 0 mm 8 m/s 638 mmHg 8%
15:00 +37°C° 0 mm 8 m/s 638 mmHg 8%
16:00 +37°C° 0 mm 8 m/s 637 mmHg 9%
17:00 +35°C° 0 mm 8 m/s 637 mmHg 9%
18:00 +33°C° 0 mm 6 m/s 636 mmHg 12%
19:00 +29°C° 0 mm 4 m/s 635 mmHg 14%
20:00 +26°C° 0 mm 3 m/s 634 mmHg 17%
21:00 +25°C° 0 mm 3 m/s 634 mmHg 20%
22:00 +24°C° 0 mm 3 m/s 634 mmHg 24%
23:00 +23°C° 0 mm 2 m/s 634 mmHg 27%

Demain, 12 Juillet, Dimanche

Heure Température Précipitation Vent Pression Humidité
00:00 +21°C° 0 mm 2 m/s 633 mmHg 31%
01:00 +20°C° 0 mm 2 m/s 633 mmHg 35%
02:00 +20°C° 0 mm 1 m/s 632 mmHg 39%
03:00 +19°C° 0 mm 2 m/s 632 mmHg 38%
04:00 +19°C° 0 mm 2 m/s 632 mmHg 38%
05:00 +19°C° 0 mm 2 m/s 632 mmHg 38%
06:00 +23°C° 0 mm 2 m/s 633 mmHg 31%
07:00 +26°C° 0 mm 3 m/s 634 mmHg 24%
08:00 +30°C° 0 mm 3 m/s 635 mmHg 17%
09:00 +33°C° 0 mm 4 m/s 635 mmHg 14%
10:00 +35°C° 0 mm 5 m/s 635 mmHg 12%
11:00 +38°C° 0 mm 6 m/s 635 mmHg 9%
12:00 +38°C° 0 mm 7 m/s 635 mmHg 9%
13:00 +39°C° 0 mm 7 m/s 634 mmHg 9%
14:00 +40°C° 0 mm 7 m/s 634 mmHg 9%
15:00 +39°C° 0 mm 7 m/s 633 mmHg 9%
16:00 +39°C° 0 mm 7 m/s 632 mmHg 9%
17:00 +39°C° 0 mm 7 m/s 632 mmHg 9%
18:00 +36°C° 0 mm 6 m/s 631 mmHg 11%
19:00 +33°C° 0 mm 5 m/s 631 mmHg 14%
20:00 +30°C° 0 mm 4 m/s 630 mmHg 17%
21:00 +28°C° 0 mm 4 m/s 630 mmHg 18%
22:00 +27°C° 0 mm 3 m/s 630 mmHg 20%
23:00 +25°C° 0 mm 3 m/s 630 mmHg 21%

Après-demain, 13 Juillet, Lundi

Heure Température Précipitation Vent Pression Humidité
00:00 +24°C° 0 mm 2 m/s 629 mmHg 22%
01:00 +23°C° 0 mm 2 m/s 629 mmHg 23%
02:00 +21°C° 0 mm 2 m/s 629 mmHg 24%
03:00 +20°C° 0 mm 2 m/s 629 mmHg 27%
04:00 +20°C° 0 mm 1 m/s 629 mmHg 31%
05:00 +20°C° 0 mm 1 m/s 629 mmHg 34%
06:00 +22°C° 0 mm 1 m/s 630 mmHg 31%
07:00 +25°C° 0 mm 1 m/s 630 mmHg 27%
08:00 +28°C° 0 mm 2 m/s 631 mmHg 23%
09:00 +29°C° 0.1 mm 3 m/s 631 mmHg 22%
10:00 +30°C° 0.1 mm 5 m/s 631 mmHg 22%
11:00 +32°C° 0.1 mm 6 m/s 631 mmHg 21%
12:00 +33°C° 0 mm 7 m/s 632 mmHg 19%
13:00 +34°C° 0 mm 9 m/s 632 mmHg 17%
14:00 +36°C° 0 mm 10 m/s 632 mmHg 14%
15:00 +33°C° 0 mm 9 m/s 631 mmHg 19%
16:00 +32°C° 0 mm 9 m/s 631 mmHg 23%
17:00 +29°C° 0 mm 8 m/s 630 mmHg 28%
18:00 +27°C° 0 mm 8 m/s 630 mmHg 32%
19:00 +24°C° 0 mm 7 m/s 630 mmHg 36%
20:00 +23°C° 0 mm 7 m/s 630 mmHg 40%
21:00 +21°C° 0.1 mm 6 m/s 630 mmHg 46%
22:00 +19°C° 0.1 mm 6 m/s 630 mmHg 52%
23:00 +16°C° 0.1 mm 6 m/s 631 mmHg 58%

14 Juillet, Mardi

Heure Température Précipitation Vent Pression Humidité
00:00 +15°C° 0 mm 5 m/s 631 mmHg 62%
01:00 +14°C° 0 mm 4 m/s 630 mmHg 66%
02:00 +14°C° 0 mm 3 m/s 630 mmHg 71%
03:00 +14°C° 0 mm 2 m/s 630 mmHg 73%
04:00 +14°C° 0 mm 2 m/s 631 mmHg 76%
05:00 +14°C° 0 mm 2 m/s 631 mmHg 78%
06:00 +16°C° 0 mm 2 m/s 631 mmHg 72%
07:00 +17°C° 0 mm 2 m/s 632 mmHg 65%
08:00 +19°C° 0 mm 2 m/s 632 mmHg 58%
09:00 +21°C° 0 mm 2 m/s 633 mmHg 52%
10:00 +23°C° 0 mm 2 m/s 633 mmHg 45%
11:00 +25°C° 0 mm 2 m/s 633 mmHg 38%
12:00 +27°C° 0 mm 2 m/s 633 mmHg 33%
13:00 +28°C° 0 mm 2 m/s 633 mmHg 28%
14:00 +29°C° 0 mm 2 m/s 633 mmHg 22%
15:00 +29°C° 0 mm 3 m/s 632 mmHg 23%
16:00 +29°C° 0 mm 4 m/s 632 mmHg 24%
17:00 +29°C° 0 mm 5 m/s 632 mmHg 25%
18:00 +27°C° 0 mm 4 m/s 632 mmHg 35%
19:00 +25°C° 0 mm 4 m/s 631 mmHg 44%
20:00 +21°C° 0 mm 4 m/s 631 mmHg 53%
21:00 +20°C° 0.1 mm 4 m/s 631 mmHg 61%
22:00 +19°C° 0.1 mm 4 m/s 631 mmHg 70%
23:00 +17°C° 0.1 mm 5 m/s 631 mmHg 78%

15 Juillet, Mercredi

Heure Température Précipitation Vent Pression Humidité
00:00 +17°C° 0 mm 4 m/s 631 mmHg 82%
01:00 +15°C° 0 mm 4 m/s 631 mmHg 86%
02:00 +16°C° 0 mm 3 m/s 631 mmHg 90%
03:00 +16°C° 0 mm 2 m/s 631 mmHg 89%
04:00 +16°C° 0 mm 1 m/s 631 mmHg 89%
05:00 +15°C° 0 mm 0 m/s 631 mmHg 89%
06:00 +18°C° 0 mm 1 m/s 632 mmHg 80%
07:00 +20°C° 0 mm 1 m/s 632 mmHg 71%
08:00 +21°C° 0 mm 2 m/s 633 mmHg 62%
09:00 +24°C° 0 mm 2 m/s 633 mmHg 50%
10:00 +26°C° 0 mm 2 m/s 633 mmHg 38%
11:00 +28°C° 0 mm 2 m/s 633 mmHg 25%
12:00 +29°C° 0 mm 3 m/s 633 mmHg 22%
13:00 +30°C° 0 mm 3 m/s 633 mmHg 18%
14:00 +33°C° 0 mm 4 m/s 633 mmHg 14%
15:00 +33°C° 0 mm 4 m/s 632 mmHg 14%
16:00 +33°C° 0 mm 5 m/s 632 mmHg 13%
17:00 +33°C° 0 mm 5 m/s 632 mmHg 13%
18:00 +29°C° 0 mm 5 m/s 632 mmHg 22%
19:00 +27°C° 0 mm 5 m/s 631 mmHg 32%
20:00 +23°C° 0 mm 5 m/s 631 mmHg 41%
21:00 +21°C° 0 mm 5 m/s 631 mmHg 51%
22:00 +19°C° 0 mm 6 m/s 631 mmHg 60%
23:00 +17°C° 0 mm 7 m/s 631 mmHg 69%

16 Juillet, Jeudi

Heure Température Précipitation Vent Pression Humidité
00:00 +16°C° 0 mm 6 m/s 631 mmHg 72%
01:00 +16°C° 0 mm 5 m/s 631 mmHg 74%
02:00 +17°C° 0 mm 4 m/s 632 mmHg 77%
03:00 +17°C° 0 mm 3 m/s 632 mmHg 79%
04:00 +16°C° 0 mm 2 m/s 632 mmHg 82%
05:00 +15°C° 0 mm 0 m/s 632 mmHg 84%
06:00 +18°C° 0 mm 1 m/s 633 mmHg 77%
07:00 +20°C° 0 mm 1 m/s 634 mmHg 70%
08:00 +21°C° 0 mm 1 m/s 635 mmHg 63%
09:00 +23°C° 0 mm 1 m/s 635 mmHg 54%
10:00 +25°C° 0 mm 1 m/s 635 mmHg 45%
11:00 +27°C° 0 mm 1 m/s 635 mmHg 36%
12:00 +29°C° 0 mm 1 m/s 635 mmHg 30%
13:00 +30°C° 0 mm 2 m/s 635 mmHg 25%
14:00 +31°C° 0 mm 2 m/s 635 mmHg 20%
15:00 +32°C° 0 mm 2 m/s 635 mmHg 18%
16:00 +34°C° 0 mm 2 m/s 634 mmHg 17%
17:00 +34°C° 0 mm 2 m/s 634 mmHg 15%
18:00 +31°C° 0 mm 3 m/s 634 mmHg 22%
19:00 +29°C° 0 mm 5 m/s 633 mmHg 29%
20:00 +27°C° 0 mm 6 m/s 633 mmHg 35%
21:00 +24°C° 0 mm 6 m/s 633 mmHg 40%
22:00 +23°C° 0 mm 5 m/s 632 mmHg 44%
23:00 +22°C° 0 mm 4 m/s 632 mmHg 48%
Voir plus